SCP
0 0 0 0 0 0 0 0 0 0 0 0 0 0 0 0 0 0 0 0 0 0 0 0 0 0 0 0 0 0 0 0 0 0 0 0 0 0 0 0 0 0 0 0 0 0 0 0 0 0 0 0 0 0
0 0 0 0 0 0 0 0 0 0 0 0 0 0 0 0 0 0 0 0 0 0 0 0 0 0 0 0 0 0 0 0 0 0 0 0 0 0 0 0 0 0 0 0 0 0 0 0 0 0 0 0 0 0
0 0 0 0 -0 0 0 0 0 0 0 0 0 0 0 0 0 0 0 0 0 0 0 0 0 0 0 0 0 0 0 0 0 0 0 0 0 0 0 0 0 0 0 0 0 0 0 0 0 0 0 0 0 0
0 0 0 0 0 0 0 0 0 0 0 0 0 0 0 0 0 0 0 0 0 0 0 0 0 0 0 0 0 0 0 0 0 0 0 0 0 0 0 0 0 0 0 0 0 0 0 0 0 0 0 0 0 0
0 0 0 0 0 0 0 0 0 0 0 0 0 0 0 0 0 0 0 0 0 0 0 0 0 0 0 0 0 0 0 0 0 0 0 0 0 0 0 0 0 0 0 0 0 0 0 0 0 0 0 0 0 0
-0 0 0 0 0 0 0 0 0 0 0 0 0 0 0 0 0 0 0 0 0 0 0 0 0 0 0 0 0 0 0 0 0 0 0 0 0 0 0 0 0 0 0 0 0 0 0 0 0 0 0 0 0 0
-0 0 0 0 0 0 0 0 0 0 0 0 0 0 0 0 0 0 0 0 0 0 0 0 0 0 0 0 0 0 0 0 0 0 0 0 0 0 0 0 0 0 0 0 0 0 0 0 0 0 0 0 0 0
0 0 -0 -0 0 0 0 0 0 0 0 0 0 0 0 0 0 0 0 0 0 0 0 0 0 0 0 0 0 0 0 0 0 0 0 0 0 0 0 0 0 0 0 0 0 0 0 0 0 0 0 0 0 0
0 0 -0 0 0 0 0 0 0 0 0 0 0 0 0 0 0 0 0 0 0 0 0 0 0 0 0 0 0 0 0 0 0 0 0 0 0 0 0 0 0 0 0 0 0 0 0 0 0 0 0 0 0 0
0 0 0 0 0 0 0 0 0 0 0 0 0 0 0 0 0 0 0 0 0 0 0 0 0 0 0 0 0 0 0 0 0 0 0 0 0 0 0 0 0 0 0 0 0 0 0 0 0 0 0 0 0 0
0 0 0 0 0 0 0 0 0 0 0 0 0 0 0 0 0 0 0 0 0 0 0 0 0 0 0 0 0 0 0 0 0 0 0 0 0 0 0 0 0 0 0 0 0 0 0 0 0 0 0 0 0 0
0 0 0 0 0 0 0 0 0 0 0 0 0 0 0 0 0 0 0 0 0 0 0 0 0 0 0 0 0 0 0 0 0 0 0 0 0 0 0 0 0 0 0 0 0 0 0 0 0 0 0 0 0 0
0 0 0 0 0 0 0 0 0 0 0 0 0 0 0 0 0 0 0 0 0 0 0 0 0 0 0 0 0 0 0 0 0 0 0 0 0 0 0 0 0 0 0 0 0 0 0 0 0 0 0 0 0 0
0 0 0 0 0 0 0 0 0 0 0 0 0 0 0 0 0 0 0 0 0 0 0 0 0 0 0 0 0 0 0 0 0 0 0 0 0 0 0 0 0 0 0 0 0 0 0 0 0 0 0 0 0 0
0 0 0 0 0 0 0 0 0 0 0 0 0 0 0 0 0 0 0 0 0 0 0 0 0 0 0 0 0 0 0 0 0 0 0 0 0 0 0 0 0 0 0 0 0 0 0 0 0 0 0 0 0 0
0 0 0 0 0 0 0 0 0 0 0 0 0 0 0 0 0 0 0 0 0 0 0 0 0 0 0 0 0 0 0 0 0 0 0 0 0 0 0 0 0 0 0 0 0 0 0 0 0 0 0 0 0 0
0 0 0 0 0 0 0 0 0 0 0 0 0 0 0 0 0 0 0 0 0 0 0 0 0 0 0 0 0 0 0 0 0 0 0 0 0 0 0 0 0 0 0 0 0 0 0 0 0 0 0 0 0 0
-0 -0 0 0 0 0 0 0 0 0 0 0 0 0 0 0 0 0 0 0 0 0 0 0 0 0 0 0 0 0 0 0 0 0 0 0 0 0 0 0 0 0 0 0 0 0 0 0 0 0 0 0 0 0
0 0 0 0 0 0 0 0 0 0 0 0 0 0 0 0 0 0 0 0 0 0 0 0 0 0 0 0 0 0 0 0 0 0 0 0 0 0 0 0 0 0 0 0 0 0 0 0 0 0 0 0 0 0
-0 -0 -0 -0 -0 0 0 0 0 0 0 0 0 0 0 0 0 0 0 0 0 0 0 0 0 0 0 0 0 0 0 0 0 0 0 0 0 0 0 0 0 0 0 0 0 0 0 0 0 0 0 0 0 0
0 0 0 0 0 0 0 0 0 0 0 0 0 0 0 0 0 0 0 0 0 0 0 0 0 0 0 0 0 0 0 0 0 0 0 0 0 0 0 0 0 0 0 0 0 0 0 0 0 0 0 0 0 0
0 0 0 0 -0 0 0 0 0 0 0 0 0 0 0 0 0 0 0 0 0 0 0 0 0 0 0 0 0 0 0 0 0 0 0 0 0 0 0 0 0 0 0 0 0 0 0 0 0 0 0 0 0 0
0 0 0 0 0 0 0 0 0 0 0 0 0 0 0 0 0 0 -0 0 0 0 0 0 0 0 0 0 0 0 0 0 0 0 0 0 0 0 -0 -0 0 0 0 0 0 0 0 0 0 0 0 0 0 0
-0 -0 -0 0 0 0 0 0 0 0 0 0 0 0 0 0 0 0 0 0 -0 0 0 0 0 0 0 0 0 0 0 0 0 0 0 0 0 0 0 0 0 0 0 0 0 0 0 0 0 0 0 0 0 0
-0 -0 0 0 0 0 0 0 0 0 0 0 0 -0 -0 -0 0 0 0 0 0 0 -0 -0 -0 0 0 0 0 0 0 0 0 0 0 0 0 0 0 0 0 0 0 0 0 0 0 0 0 0 0 0 0 0
-0 0 0 0 0 0 0 0 0 0 0 0 0 0 0 0 0 0 0 0 0 0 0 -0 -0 -0 -0 -0 -0 0 0 0 0 0 0 0 0 0 0 0 0 0 0 0 0 0 0 0 0 0 0 0 0 0
-0 -0 0 0 0 0 0 0 0 0 0 0 0 0 0 0 0 0 0 0 0 0 0 0 0 0 0 -0 -0 0 0 0 0 0 0 0 0 0 0 0 0 0 0 0 0 0 0 0 0 0 0 0 0 0
0 0 0 0 0 0 0 0 0 0 0 0 0 0 0 0 0 0 0 0 0 0 0 0 0 0 0 0 0 0 0 0 0 0 0 0 0 0 0 0 0 0 0 0 0 0 0 0 0 0 0 0 0 0
-0 -0 0 0 0 0 0 0 0 0 0 0 0 0 0 0 0 0 0 0 0 0 0 0 0 0 0 0 0 0 0 0 0 0 0 0 0 0 0 0 0 0 0 0 0 0 0 0 0 0 0 0 0 0
-0 0 -0 -0 -0 -0 -0 -0 -0 0 0 0 0 0 0 0 0 0 0 0 0 0 0 0 0 0 0 0 0 0 0 0 0 0 0 0 0 0 0 0 0 0 0 0 0 0 0 0 0 0 0 0 0 0
0 0 0 -0 -0 -0 -0 -0 -0 -0 -0 -0 -0 -0 -0 -0 -0 -0 0 0 0 0 -0 -0 0 0 0 0 0 0 0 0 0 0 0 0 0 0 0 0 0 0 0 0 0 0 0 0 0 0 0 0 0 0
0 0 0 0 0 0 0 0 0 0 0 -0 -0 -0 -0 -0 -0 0 0 0 0 0 0 0 -0 -0 0 0 0 0 0 0 0 0 0 0 0 0 0 0 0 0 0 0 0 0 0 0 0 0 0 0 0 0
0 0 0 0 0 0 0 0 0 0 0 0 0 0 0 0 0 0 0 0 0 0 0 0 0 0 0 0 0 0 0 0 0 0 0 0 0 0 0 0 0 0 0 0 0 0 0 0 0 0 0 0 0 0
Wind_Speed_500mb
27 33 32 28 28 28 25 22 27 20 22 27 27 27 26 29 34 40 37 32 20 9 16 13 11 15 12 17 8 15 7 1 3 7 8 6 6 10 7 10 17 23 21 11 10 19 29 20 6 23 9 11 12 8
30 29 29 36 34 31 31 25 30 30 29 25 29 30 26 30 35 48 41 36 32 10 13 20 17 19 13 14 16 24 10 6 10 4 4 6 4 4 9 8 1 6 8 12 18 11 3 31 5 13 16 19 13 12
25 19 15 18 32 33 33 29 31 33 33 31 29 32 31 26 34 43 52 48 37 15 10 15 15 16 18 10 13 13 8 14 12 7 5 3 5 4 5 3 7 3 4 5 7 6 2 25 14 16 14 12 11 8
20 18 4 11 18 21 23 25 27 26 35 35 33 31 33 29 35 26 50 55 43 18 7 7 16 21 17 13 10 8 15 19 24 17 7 4 5 4 5 6 6 6 15 9 5 8 5 11 22 14 10 8 8 7
15 14 11 12 19 16 16 17 19 23 30 35 32 35 34 34 32 44 31 49 42 12 10 10 19 14 25 18 15 18 20 25 15 7 5 1 2 6 3 4 2 10 11 9 8 16 7 7 21 21 17 14 11 13
15 17 8 5 10 16 11 11 13 17 23 27 33 32 34 35 37 35 16 56 52 25 9 5 7 11 18 28 22 21 21 16 8 8 4 8 5 4 5 5 9 16 12 12 11 23 21 21 17 18 16 14 14 16
31 35 26 11 8 17 14 9 11 11 17 22 26 32 29 35 40 18 14 18 61 23 9 6 4 9 25 24 16 13 13 8 7 7 4 7 4 5 5 5 9 21 19 17 20 17 11 16 8 10 9 7 8 9
29 33 36 32 24 21 14 12 12 12 13 28 20 21 22 42 41 33 14 37 56 25 9 6 2 6 19 9 8 9 8 7 6 8 7 5 6 6 4 10 20 16 17 17 15 13 9 10 12 8 9 12 16 20
15 22 29 37 38 25 15 15 15 10 6 16 17 12 15 13 14 41 31 58 53 14 12 7 11 9 21 9 11 8 6 3 5 3 2 10 2 8 12 30 38 33 27 19 17 16 19 21 20 23 27 29 32 33
8 17 17 20 27 31 31 17 15 9 4 8 12 9 5 8 48 57 43 41 19 13 10 5 15 8 21 8 5 11 6 5 4 8 15 5 7 43 52 35 23 24 32 34 35 37 39 43 44 45 45 45 45 43
8 13 22 14 13 19 23 21 14 16 18 12 5 5 17 21 11 8 7 9 10 8 21 14 14 10 16 7 5 7 5 4 6 8 10 4 7 34 42 31 37 35 35 38 41 47 48 49 48 45 48 48 50 51
13 7 16 14 11 11 12 14 14 9 10 8 8 13 14 9 5 5 3 5 5 4 6 8 12 18 16 12 7 6 6 4 7 7 7 5 14 13 14 17 26 31 32 36 40 45 48 51 55 56 58 61 59 56
8 9 6 4 4 4 3 4 7 12 6 3 3 5 6 2 4 6 6 1 6 2 12 19 6 13 10 8 8 6 7 9 9 4 6 10 1 19 19 17 15 16 21 32 41 47 49 51 53 53 54 51 53 57
9 14 11 15 13 10 9 10 12 7 8 4 1 5 7 3 4 7 8 9 7 21 30 43 13 7 8 5 5 8 6 7 5 6 11 5 22 27 23 21 22 17 17 19 23 30 36 41 46 48 52 54 57 58
9 10 16 16 16 12 10 9 11 5 4 4 5 6 6 3 8 9 15 15 11 35 51 20 14 10 2 6 5 6 5 8 10 11 8 10 28 24 25 22 24 23 18 15 12 9 6 7 13 19 26 31 39 47
5 15 11 11 13 12 12 9 13 9 5 3 6 4 6 5 5 6 8 11 18 37 28 13 6 7 6 7 7 9 14 11 8 7 4 23 25 25 22 20 17 16 15 14 13 13 14 17 21 25 28 33 36 37
5 6 7 9 14 25 23 20 13 7 6 6 4 8 5 4 3 4 5 9 30 25 5 6 9 12 6 6 2 7 10 7 2 11 13 14 14 11 8 8 10 11 13 15 16 20 23 26 28 30 32 34 38 41
10 10 21 31 34 24 21 18 7 7 11 11 5 7 9 9 3 6 10 14 9 10 9 6 11 5 9 12 6 5 8 10 11 12 9 7 6 6 7 10 13 16 18 21 23 27 29 31 33 33 34 36 39 40
6 26 24 25 26 26 12 7 6 9 8 7 7 9 8 10 21 17 16 15 15 15 15 7 5 6 5 1 1 4 6 7 6 4 3 3 1 5 9 13 16 19 22 25 27 28 30 33 35 37 40 41 39 38
15 11 16 29 38 7 10 10 10 12 5 5 5 6 7 9 11 19 18 16 14 7 9 8 3 1 1 2 3 2 1 2 3 5 4 1 3 8 12 15 18 20 22 25 27 29 32 35 37 38 38 37 35 34
16 22 34 36 7 14 13 8 10 9 11 8 9 6 8 10 12 15 14 14 12 11 4 6 4 5 5 4 3 3 1 2 3 3 4 7 13 16 20 24 26 28 28 29 29 30 31 30 30 29 29 29 27 26
26 31 21 9 9 10 14 14 11 11 7 9 7 6 10 6 12 16 14 19 10 9 7 10 9 6 5 4 3 2 3 4 3 3 4 3 7 10 14 19 21 21 21 21 20 19 18 17 16 14 13 14 15 16
15 11 11 9 8 11 8 8 6 7 5 3 4 7 7 6 11 9 10 9 7 15 15 11 7 4 3 3 3 2 1 1 3 5 6 8 8 8 9 12 13 12 10 10 9 9 9 9 9 9 9 9 9 9
13 11 17 15 23 4 5 9 8 8 8 8 6 5 7 9 14 9 5 4 10 17 15 12 7 3 3 5 4 3 1 3 3 3 4 2 3 5 6 6 8 10 10 11 11 11 11 10 10 9 10 11 12 13
10 27 18 16 19 13 13 10 11 8 7 7 6 7 6 11 5 6 2 8 15 15 13 10 7 5 3 1 1 1 1 2 3 5 5 7 6 7 7 8 10 12 13 14 14 14 14 14 15 15 16 16 17 18
17 22 15 12 13 9 6 7 9 6 5 7 3 10 7 5 7 1 4 11 13 14 14 10 8 6 5 5 6 7 8 9 10 11 12 12 13 13 12 13 14 16 16 17 17 17 18 18 18 18 19 20 21 22
13 10 16 20 10 6 6 5 3 7 8 7 6 9 6 8 3 6 8 10 12 16 14 12 11 10 10 10 11 11 11 13 14 13 15 16 18 18 18 18 17 16 17 17 18 17 17 17 18 19 19 20 21 23
11 20 6 26 11 13 6 6 8 5 4 6 4 7 6 8 5 8 8 16 17 17 15 14 13 12 13 13 13 13 13 14 15 15 13 10 12 12 12 14 15 16 16 17 17 17 17 17 18 20 21 22 22 25
10 30 18 8 6 12 11 4 2 3 9 4 3 3 5 4 8 13 14 16 15 14 13 13 14 14 15 15 16 16 17 17 16 14 12 11 12 13 15 15 16 16 16 17 19 20 22 24 27 29 30 31 30 30
16 33 14 12 6 6 7 10 9 15 10 8 10 9 8 4 8 13 14 16 16 15 15 14 14 14 14 14 12 13 14 14 13 13 14 13 14 16 18 20 21 23 24 25 26 27 31 33 34 38 42 44 43 43
23 21 10 7 2 6 15 17 14 11 8 6 8 8 9 9 1 12 17 16 16 17 17 16 16 16 17 18 19 18 15 15 18 20 22 22 23 24 27 28 30 32 32 33 34 36 38 40 41 44 46 47 45 47
18 17 12 8 5 12 12 20 10 6 5 5 4 8 8 6 3 4 13 16 21 26 26 23 19 18 20 21 19 20 20 20 21 23 25 27 27 28 31 33 34 38 39 40 41 42 43 46 47 46 48 49 49 49
10 13 8 10 8 5 12 22 4 10 4 4 4 8 8 5 2 11 21 17 28 35 28 24 23 24 23 22 20 20 21 24 26 28 31 34 35 36 37 37 38 41 44 45 45 46 47 49 51 52 53 55 57 58
Wind_Direction_500mb
297 293 281 255 243 240 239 244 221 212 219 215 213 220 218 205 203 205 202 201 191 105 137 164 147 155 158 162 148 155 113 164 126 162 162 155 157 193 121 151 173 178 177 183 181 213 250 167 97 163 203 142 157 160
301 291 272 244 236 228 231 233 217 216 215 221 213 215 222 213 200 202 201 199 195 160 163 168 157 177 175 168 132 155 144 135 176 125 112 120 116 146 148 162 266 182 196 170 186 208 225 181 103 165 161 146 150 159
337 320 291 229 214 213 218 218 209 212 213 212 218 214 216 222 204 209 193 195 188 163 137 160 178 161 172 161 156 139 165 149 161 110 117 112 113 129 131 191 103 303 207 157 90 285 34 165 128 140 133 123 129 148
359 2 65 152 178 190 185 189 198 211 210 209 211 213 213 216 212 213 186 191 183 152 126 176 165 175 172 175 175 125 158 133 138 127 86 138 145 205 183 142 149 176 140 161 351 308 359 203 211 192 183 180 181 171
26 26 57 104 133 124 134 165 194 201 205 212 216 207 212 208 220 217 208 191 188 182 150 139 169 160 173 153 132 132 132 137 127 97 88 219 165 115 347 39 297 185 169 171 205 195 123 167 207 225 229 237 239 237
36 41 34 133 156 136 133 153 160 179 191 193 200 202 207 198 208 179 179 195 175 151 120 99 139 165 155 170 142 129 126 121 92 100 131 130 159 101 106 183 264 192 167 151 146 131 120 132 152 174 195 215 232 238
46 53 52 78 163 157 142 151 144 158 192 179 194 202 203 193 206 169 166 193 176 143 117 97 85 119 146 140 142 153 158 123 106 105 81 120 85 97 92 178 252 198 187 140 140 141 132 161 170 182 193 208 222 229
47 57 53 61 101 130 139 146 141 156 133 127 149 184 200 193 191 189 192 166 161 149 100 109 88 131 157 114 92 116 111 113 110 121 118 100 92 58 253 218 163 173 182 186 183 189 188 186 200 202 237 254 260 262
85 59 57 59 61 70 101 100 129 130 148 119 125 137 179 140 147 175 148 169 174 134 142 119 147 177 156 108 116 101 117 81 154 95 220 139 212 218 206 185 202 202 211 204 200 212 228 242 250 248 247 251 258 258
122 109 80 73 62 58 59 93 119 157 151 110 119 74 72 90 131 139 155 168 165 186 165 138 137 137 163 124 117 117 137 157 166 223 151 137 246 249 246 235 229 225 235 240 240 239 247 252 255 257 261 265 269 268
28 147 106 88 70 57 50 42 60 115 111 131 100 88 136 152 88 79 138 152 147 156 172 162 146 133 179 118 143 149 165 155 165 244 143 206 263 243 248 238 247 244 240 244 250 260 261 262 263 265 269 272 274 271
350 14 107 84 90 81 59 36 42 122 78 60 110 124 159 108 118 132 158 114 95 166 137 123 137 124 132 142 100 162 149 93 210 145 124 220 249 255 256 229 229 232 237 246 249 253 254 257 262 265 268 271 273 276
276 258 258 199 113 153 124 31 28 58 59 92 89 121 144 201 114 158 133 47 108 189 160 147 86 116 113 118 89 112 116 202 117 138 209 231 98 149 149 149 166 190 220 235 241 250 257 260 264 268 271 273 274 273
272 226 210 194 198 191 191 221 259 26 78 103 155 291 169 201 164 188 178 173 160 158 144 139 98 113 121 89 136 125 215 98 101 136 233 235 168 158 160 168 183 189 204 225 241 252 262 269 272 274 274 275 276 275
272 221 186 178 191 197 194 221 228 178 84 54 10 217 205 276 41 122 135 134 136 153 145 123 80 100 152 125 144 106 114 190 188 208 235 188 176 176 175 174 173 167 169 175 183 198 228 278 299 303 298 288 278 274
186 157 134 171 208 210 199 183 176 134 123 82 42 278 7 55 335 57 88 111 131 145 134 102 122 156 185 161 149 190 138 201 232 214 146 153 162 166 168 175 184 193 195 208 224 238 262 284 295 297 296 293 293 286
196 182 235 225 182 178 181 193 172 159 108 57 15 35 0 17 337 60 78 122 148 158 143 125 132 192 91 112 176 184 189 215 69 133 145 158 169 179 197 221 242 262 270 275 283 288 297 301 301 301 301 302 299 294
291 236 179 169 179 172 162 178 164 90 68 46 47 1 46 41 39 67 96 128 151 123 130 168 132 111 162 158 252 209 90 97 112 124 132 154 184 217 238 261 271 271 275 284 289 290 292 296 299 300 299 299 299 297
135 159 171 184 185 152 142 104 63 89 71 73 81 59 63 78 64 75 105 103 95 95 108 89 114 171 211 331 303 82 106 134 151 178 189 178 232 279 273 271 270 274 280 282 283 286 288 290 297 301 301 300 297 292
170 179 153 165 170 132 94 70 74 87 119 117 77 51 54 60 63 61 76 93 92 67 44 34 60 160 31 14 348 280 318 53 109 170 195 156 300 322 312 304 296 290 287 288 289 288 291 295 297 299 296 295 293 288
117 123 147 158 103 69 85 87 74 88 116 106 101 63 64 40 40 38 36 37 61 42 63 59 47 17 347 326 327 318 290 250 234 248 271 313 310 311 309 301 298 297 297 294 293 295 297 298 298 299 298 297 292 284
111 122 125 93 74 80 78 53 94 106 99 102 74 55 48 32 21 12 11 45 55 39 27 345 338 346 347 334 284 236 239 256 240 255 271 308 354 344 328 321 312 304 302 302 305 307 308 308 309 304 302 304 296 287
96 86 71 52 94 60 56 59 79 47 102 96 103 59 28 22 10 11 71 55 52 4 353 342 330 295 275 232 224 245 264 160 135 132 90 61 42 28 27 18 2 347 340 329 328 331 328 328 319 311 303 292 279 272
84 56 33 37 31 54 49 40 48 52 58 35 51 47 359 328 355 58 66 27 0 10 11 3 3 20 161 171 161 177 105 122 115 78 69 41 358 6 14 6 342 330 325 322 317 312 311 305 296 291 288 280 275 270
66 11 23 7 15 18 30 16 5 37 50 344 66 14 347 345 66 56 7 321 342 354 1 4 9 20 360 345 73 324 267 304 297 300 296 295 303 305 302 297 295 291 294 295 292 293 292 290 285 280 276 273 269 265
64 13 34 347 4 39 334 41 25 13 17 39 1 314 329 64 59 264 254 322 326 339 342 338 331 331 338 332 317 305 301 298 294 292 289 293 294 297 296 292 292 296 294 292 295 293 285 283 281 278 274 272 271 270
46 343 9 23 1 338 42 56 84 64 52 26 319 350 27 62 314 263 333 351 341 338 340 339 334 325 315 310 309 306 301 300 302 300 297 297 293 291 286 286 289 285 283 287 290 289 287 283 280 279 279 279 278 278
65 23 14 335 12 19 112 48 41 39 301 342 304 22 113 176 229 335 332 335 333 335 335 332 331 324 317 309 305 302 302 305 306 311 312 308 315 311 311 312 313 313 308 302 298 299 297 295 292 290 289 289 289 288
22 351 347 345 22 45 48 92 219 4 342 329 132 275 264 264 332 338 339 335 334 334 340 341 341 340 341 341 340 342 340 338 336 335 316 314 320 319 315 313 314 314 313 309 303 300 297 294 292 293 295 295 296 293
359 356 355 4 60 15 13 8 342 328 318 302 293 296 293 325 8 6 7 3 1 357 351 348 346 344 342 339 333 327 328 328 329 328 328 327 318 310 305 302 301 301 300 298 295 293 294 294 293 292 295 296 298 296
346 350 337 13 39 5 342 334 331 320 311 304 302 298 311 320 27 34 24 20 17 11 3 353 344 342 339 332 329 325 321 316 317 315 313 311 306 303 298 296 294 292 292 292 291 289 288 286 286 286 286 288 289 290
339 357 352 340 340 340 347 349 321 317 302 310 307 329 336 328 303 14 9 14 10 1 351 343 337 338 334 333 330 329 324 319 314 313 311 310 308 304 300 298 297 295 294 293 292 292 291 291 292 292 293 293 294 294
315 335 326 315 309 328 338 343 336 345 272 295 335 339 350 330 281 3 350 338 353 352 352 352 346 339 335 336 331 331 333 333 330 325 321 318 315 311 308 306 302 300 298 298 297 296 295 295 295 296 296 297 297 297
Wind_Speed_850mb
27 33 32 28 28 28 25 22 27 20 22 27 27 27 26 29 34 40 37 32 20 9 16 13 11 15 12 17 8 15 7 1 3 7 8 6 6 10 7 10 17 23 21 11 10 19 29 20 6 23 9 11 12 8
30 29 29 36 34 31 31 25 30 30 29 25 29 30 26 30 35 48 41 36 32 10 13 20 17 19 13 14 16 24 10 6 10 4 4 6 4 4 9 8 1 6 8 12 18 11 3 31 5 13 16 19 13 12
25 19 15 18 32 33 33 29 31 33 33 31 29 32 31 26 34 43 52 48 37 15 10 15 15 16 18 10 13 13 8 14 12 7 5 3 5 4 5 3 7 3 4 5 7 6 2 25 14 16 14 12 11 8
20 18 4 11 18 21 23 25 27 26 35 35 33 31 33 29 35 26 50 55 43 18 7 7 16 21 17 13 10 8 15 19 24 17 7 4 5 4 5 6 6 6 15 9 5 8 5 11 22 14 10 8 8 7
15 14 11 12 19 16 16 17 19 23 30 35 32 35 34 34 32 44 31 49 42 12 10 10 19 14 25 18 15 18 20 25 15 7 5 1 2 6 3 4 2 10 11 9 8 16 7 7 21 21 17 14 11 13
15 17 8 5 10 16 11 11 13 17 23 27 33 32 34 35 37 35 16 56 52 25 9 5 7 11 18 28 22 21 21 16 8 8 4 8 5 4 5 5 9 16 12 12 11 23 21 21 17 18 16 14 14 16
31 35 26 11 8 17 14 9 11 11 17 22 26 32 29 35 40 18 14 18 61 23 9 6 4 9 25 24 16 13 13 8 7 7 4 7 4 5 5 5 9 21 19 17 20 17 11 16 8 10 9 7 8 9
29 33 36 32 24 21 14 12 12 12 13 28 20 21 22 42 41 33 14 37 56 25 9 6 2 6 19 9 8 9 8 7 6 8 7 5 6 6 4 10 20 16 17 17 15 13 9 10 12 8 9 12 16 20
15 22 29 37 38 25 15 15 15 10 6 16 17 12 15 13 14 41 31 58 53 14 12 7 11 9 21 9 11 8 6 3 5 3 2 10 2 8 12 30 38 33 27 19 17 16 19 21 20 23 27 29 32 33
8 17 17 20 27 31 31 17 15 9 4 8 12 9 5 8 48 57 43 41 19 13 10 5 15 8 21 8 5 11 6 5 4 8 15 5 7 43 52 35 23 24 32 34 35 37 39 43 44 45 45 45 45 43
8 13 22 14 13 19 23 21 14 16 18 12 5 5 17 21 11 8 7 9 10 8 21 14 14 10 16 7 5 7 5 4 6 8 10 4 7 34 42 31 37 35 35 38 41 47 48 49 48 45 48 48 50 51
13 7 16 14 11 11 12 14 14 9 10 8 8 13 14 9 5 5 3 5 5 4 6 8 12 18 16 12 7 6 6 4 7 7 7 5 14 13 14 17 26 31 32 36 40 45 48 51 55 56 58 61 59 56
8 9 6 4 4 4 3 4 7 12 6 3 3 5 6 2 4 6 6 1 6 2 12 19 6 13 10 8 8 6 7 9 9 4 6 10 1 19 19 17 15 16 21 32 41 47 49 51 53 53 54 51 53 57
9 14 11 15 13 10 9 10 12 7 8 4 1 5 7 3 4 7 8 9 7 21 30 43 13 7 8 5 5 8 6 7 5 6 11 5 22 27 23 21 22 17 17 19 23 30 36 41 46 48 52 54 57 58
9 10 16 16 16 12 10 9 11 5 4 4 5 6 6 3 8 9 15 15 11 35 51 20 14 10 2 6 5 6 5 8 10 11 8 10 28 24 25 22 24 23 18 15 12 9 6 7 13 19 26 31 39 47
5 15 11 11 13 12 12 9 13 9 5 3 6 4 6 5 5 6 8 11 18 37 28 13 6 7 6 7 7 9 14 11 8 7 4 23 25 25 22 20 17 16 15 14 13 13 14 17 21 25 28 33 36 37
5 6 7 9 14 25 23 20 13 7 6 6 4 8 5 4 3 4 5 9 30 25 5 6 9 12 6 6 2 7 10 7 2 11 13 14 14 11 8 8 10 11 13 15 16 20 23 26 28 30 32 34 38 41
10 10 21 31 34 24 21 18 7 7 11 11 5 7 9 9 3 6 10 14 9 10 9 6 11 5 9 12 6 5 8 10 11 12 9 7 6 6 7 10 13 16 18 21 23 27 29 31 33 33 34 36 39 40
6 26 24 25 26 26 12 7 6 9 8 7 7 9 8 10 21 17 16 15 15 15 15 7 5 6 5 1 1 4 6 7 6 4 3 3 1 5 9 13 16 19 22 25 27 28 30 33 35 37 40 41 39 38
15 11 16 29 38 7 10 10 10 12 5 5 5 6 7 9 11 19 18 16 14 7 9 8 3 1 1 2 3 2 1 2 3 5 4 1 3 8 12 15 18 20 22 25 27 29 32 35 37 38 38 37 35 34
16 22 34 36 7 14 13 8 10 9 11 8 9 6 8 10 12 15 14 14 12 11 4 6 4 5 5 4 3 3 1 2 3 3 4 7 13 16 20 24 26 28 28 29 29 30 31 30 30 29 29 29 27 26
26 31 21 9 9 10 14 14 11 11 7 9 7 6 10 6 12 16 14 19 10 9 7 10 9 6 5 4 3 2 3 4 3 3 4 3 7 10 14 19 21 21 21 21 20 19 18 17 16 14 13 14 15 16
15 11 11 9 8 11 8 8 6 7 5 3 4 7 7 6 11 9 10 9 7 15 15 11 7 4 3 3 3 2 1 1 3 5 6 8 8 8 9 12 13 12 10 10 9 9 9 9 9 9 9 9 9 9
13 11 17 15 23 4 5 9 8 8 8 8 6 5 7 9 14 9 5 4 10 17 15 12 7 3 3 5 4 3 1 3 3 3 4 2 3 5 6 6 8 10 10 11 11 11 11 10 10 9 10 11 12 13
10 27 18 16 19 13 13 10 11 8 7 7 6 7 6 11 5 6 2 8 15 15 13 10 7 5 3 1 1 1 1 2 3 5 5 7 6 7 7 8 10 12 13 14 14 14 14 14 15 15 16 16 17 18
17 22 15 12 13 9 6 7 9 6 5 7 3 10 7 5 7 1 4 11 13 14 14 10 8 6 5 5 6 7 8 9 10 11 12 12 13 13 12 13 14 16 16 17 17 17 18 18 18 18 19 20 21 22
13 10 16 20 10 6 6 5 3 7 8 7 6 9 6 8 3 6 8 10 12 16 14 12 11 10 10 10 11 11 11 13 14 13 15 16 18 18 18 18 17 16 17 17 18 17 17 17 18 19 19 20 21 23
11 20 6 26 11 13 6 6 8 5 4 6 4 7 6 8 5 8 8 16 17 17 15 14 13 12 13 13 13 13 13 14 15 15 13 10 12 12 12 14 15 16 16 17 17 17 17 17 18 20 21 22 22 25
10 30 18 8 6 12 11 4 2 3 9 4 3 3 5 4 8 13 14 16 15 14 13 13 14 14 15 15 16 16 17 17 16 14 12 11 12 13 15 15 16 16 16 17 19 20 22 24 27 29 30 31 30 30
16 33 14 12 6 6 7 10 9 15 10 8 10 9 8 4 8 13 14 16 16 15 15 14 14 14 14 14 12 13 14 14 13 13 14 13 14 16 18 20 21 23 24 25 26 27 31 33 34 38 42 44 43 43
23 21 10 7 2 6 15 17 14 11 8 6 8 8 9 9 1 12 17 16 16 17 17 16 16 16 17 18 19 18 15 15 18 20 22 22 23 24 27 28 30 32 32 33 34 36 38 40 41 44 46 47 45 47
18 17 12 8 5 12 12 20 10 6 5 5 4 8 8 6 3 4 13 16 21 26 26 23 19 18 20 21 19 20 20 20 21 23 25 27 27 28 31 33 34 38 39 40 41 42 43 46 47 46 48 49 49 49
10 13 8 10 8 5 12 22 4 10 4 4 4 8 8 5 2 11 21 17 28 35 28 24 23 24 23 22 20 20 21 24 26 28 31 34 35 36 37 37 38 41 44 45 45 46 47 49 51 52 53 55 57 58
Wind_Direction_850mb
297 293 281 255 243 240 239 244 221 212 219 215 213 220 218 205 203 205 202 201 191 105 137 164 147 155 158 162 148 155 113 164 126 162 162 155 157 193 121 151 173 178 177 183 181 213 250 167 97 163 203 142 157 160
301 291 272 244 236 228 231 233 217 216 215 221 213 215 222 213 200 202 201 199 195 160 163 168 157 177 175 168 132 155 144 135 176 125 112 120 116 146 148 162 266 182 196 170 186 208 225 181 103 165 161 146 150 159
337 320 291 229 214 213 218 218 209 212 213 212 218 214 216 222 204 209 193 195 188 163 137 160 178 161 172 161 156 139 165 149 161 110 117 112 113 129 131 191 103 303 207 157 90 285 34 165 128 140 133 123 129 148
359 2 65 152 178 190 185 189 198 211 210 209 211 213 213 216 212 213 186 191 183 152 126 176 165 175 172 175 175 125 158 133 138 127 86 138 145 205 183 142 149 176 140 161 351 308 359 203 211 192 183 180 181 171
26 26 57 104 133 124 134 165 194 201 205 212 216 207 212 208 220 217 208 191 188 182 150 139 169 160 173 153 132 132 132 137 127 97 88 219 165 115 347 39 297 185 169 171 205 195 123 167 207 225 229 237 239 237
36 41 34 133 156 136 133 153 160 179 191 193 200 202 207 198 208 179 179 195 175 151 120 99 139 165 155 170 142 129 126 121 92 100 131 130 159 101 106 183 264 192 167 151 146 131 120 132 152 174 195 215 232 238
46 53 52 78 163 157 142 151 144 158 192 179 194 202 203 193 206 169 166 193 176 143 117 97 85 119 146 140 142 153 158 123 106 105 81 120 85 97 92 178 252 198 187 140 140 141 132 161 170 182 193 208 222 229
47 57 53 61 101 130 139 146 141 156 133 127 149 184 200 193 191 189 192 166 161 149 100 109 88 131 157 114 92 116 111 113 110 121 118 100 92 58 253 218 163 173 182 186 183 189 188 186 200 202 237 254 260 262
85 59 57 59 61 70 101 100 129 130 148 119 125 137 179 140 147 175 148 169 174 134 142 119 147 177 156 108 116 101 117 81 154 95 220 139 212 218 206 185 202 202 211 204 200 212 228 242 250 248 247 251 258 258
122 109 80 73 62 58 59 93 119 157 151 110 119 74 72 90 131 139 155 168 165 186 165 138 137 137 163 124 117 117 137 157 166 223 151 137 246 249 246 235 229 225 235 240 240 239 247 252 255 257 261 265 269 268
28 147 106 88 70 57 50 42 60 115 111 131 100 88 136 152 88 79 138 152 147 156 172 162 146 133 179 118 143 149 165 155 165 244 143 206 263 243 248 238 247 244 240 244 250 260 261 262 263 265 269 272 274 271
350 14 107 84 90 81 59 36 42 122 78 60 110 124 159 108 118 132 158 114 95 166 137 123 137 124 132 142 100 162 149 93 210 145 124 220 249 255 256 229 229 232 237 246 249 253 254 257 262 265 268 271 273 276
276 258 258 199 113 153 124 31 28 58 59 92 89 121 144 201 114 158 133 47 108 189 160 147 86 116 113 118 89 112 116 202 117 138 209 231 98 149 149 149 166 190 220 235 241 250 257 260 264 268 271 273 274 273
272 226 210 194 198 191 191 221 259 26 78 103 155 291 169 201 164 188 178 173 160 158 144 139 98 113 121 89 136 125 215 98 101 136 233 235 168 158 160 168 183 189 204 225 241 252 262 269 272 274 274 275 276 275
272 221 186 178 191 197 194 221 228 178 84 54 10 217 205 276 41 122 135 134 136 153 145 123 80 100 152 125 144 106 114 190 188 208 235 188 176 176 175 174 173 167 169 175 183 198 228 278 299 303 298 288 278 274
186 157 134 171 208 210 199 183 176 134 123 82 42 278 7 55 335 57 88 111 131 145 134 102 122 156 185 161 149 190 138 201 232 214 146 153 162 166 168 175 184 193 195 208 224 238 262 284 295 297 296 293 293 286
196 182 235 225 182 178 181 193 172 159 108 57 15 35 0 17 337 60 78 122 148 158 143 125 132 192 91 112 176 184 189 215 69 133 145 158 169 179 197 221 242 262 270 275 283 288 297 301 301 301 301 302 299 294
291 236 179 169 179 172 162 178 164 90 68 46 47 1 46 41 39 67 96 128 151 123 130 168 132 111 162 158 252 209 90 97 112 124 132 154 184 217 238 261 271 271 275 284 289 290 292 296 299 300 299 299 299 297
135 159 171 184 185 152 142 104 63 89 71 73 81 59 63 78 64 75 105 103 95 95 108 89 114 171 211 331 303 82 106 134 151 178 189 178 232 279 273 271 270 274 280 282 283 286 288 290 297 301 301 300 297 292
170 179 153 165 170 132 94 70 74 87 119 117 77 51 54 60 63 61 76 93 92 67 44 34 60 160 31 14 348 280 318 53 109 170 195 156 300 322 312 304 296 290 287 288 289 288 291 295 297 299 296 295 293 288
117 123 147 158 103 69 85 87 74 88 116 106 101 63 64 40 40 38 36 37 61 42 63 59 47 17 347 326 327 318 290 250 234 248 271 313 310 311 309 301 298 297 297 294 293 295 297 298 298 299 298 297 292 284
111 122 125 93 74 80 78 53 94 106 99 102 74 55 48 32 21 12 11 45 55 39 27 345 338 346 347 334 284 236 239 256 240 255 271 308 354 344 328 321 312 304 302 302 305 307 308 308 309 304 302 304 296 287
96 86 71 52 94 60 56 59 79 47 102 96 103 59 28 22 10 11 71 55 52 4 353 342 330 295 275 232 224 245 264 160 135 132 90 61 42 28 27 18 2 347 340 329 328 331 328 328 319 311 303 292 279 272
84 56 33 37 31 54 49 40 48 52 58 35 51 47 359 328 355 58 66 27 0 10 11 3 3 20 161 171 161 177 105 122 115 78 69 41 358 6 14 6 342 330 325 322 317 312 311 305 296 291 288 280 275 270
66 11 23 7 15 18 30 16 5 37 50 344 66 14 347 345 66 56 7 321 342 354 1 4 9 20 360 345 73 324 267 304 297 300 296 295 303 305 302 297 295 291 294 295 292 293 292 290 285 280 276 273 269 265
64 13 34 347 4 39 334 41 25 13 17 39 1 314 329 64 59 264 254 322 326 339 342 338 331 331 338 332 317 305 301 298 294 292 289 293 294 297 296 292 292 296 294 292 295 293 285 283 281 278 274 272 271 270
46 343 9 23 1 338 42 56 84 64 52 26 319 350 27 62 314 263 333 351 341 338 340 339 334 325 315 310 309 306 301 300 302 300 297 297 293 291 286 286 289 285 283 287 290 289 287 283 280 279 279 279 278 278
65 23 14 335 12 19 112 48 41 39 301 342 304 22 113 176 229 335 332 335 333 335 335 332 331 324 317 309 305 302 302 305 306 311 312 308 315 311 311 312 313 313 308 302 298 299 297 295 292 290 289 289 289 288
22 351 347 345 22 45 48 92 219 4 342 329 132 275 264 264 332 338 339 335 334 334 340 341 341 340 341 341 340 342 340 338 336 335 316 314 320 319 315 313 314 314 313 309 303 300 297 294 292 293 295 295 296 293
359 356 355 4 60 15 13 8 342 328 318 302 293 296 293 325 8 6 7 3 1 357 351 348 346 344 342 339 333 327 328 328 329 328 328 327 318 310 305 302 301 301 300 298 295 293 294 294 293 292 295 296 298 296
346 350 337 13 39 5 342 334 331 320 311 304 302 298 311 320 27 34 24 20 17 11 3 353 344 342 339 332 329 325 321 316 317 315 313 311 306 303 298 296 294 292 292 292 291 289 288 286 286 286 286 288 289 290
339 357 352 340 340 340 347 349 321 317 302 310 307 329 336 328 303 14 9 14 10 1 351 343 337 338 334 333 330 329 324 319 314 313 311 310 308 304 300 298 297 295 294 293 292 292 291 291 292 292 293 293 294 294
315 335 326 315 309 328 338 343 336 345 272 295 335 339 350 330 281 3 350 338 353 352 352 352 346 339 335 336 331 331 333 333 330 325 321 318 315 311 308 306 302 300 298 298 297 296 295 295 295 296 296 297 297 297